Location: Rounton
(54.4000°N, 1.3500°W)
Time: 02:13:21
(UTC+00:00)

Envisat - Pass Details

Date: 26 October 2021
Orbit: 764 x 766 km, 98.2° (Epoch: 28 November)

Event Time Altitude Azimuth Distance (km) Brightness Sun altitude
Rises 18:43:04 0° 215° (SW) 3,226 6.9 -9.4°
Reaches altitude 10° 18:46:15 10° 236° (SW) 2,305 6.6 -9.8°
Maximum altitude 18:49:23 16° 275° (W) 1,911 6.3 -10.3°
Drops below altitude 10° 18:52:32 10° 313° (NW) 2,315 6.1 -10.8°
Sets 18:55:45 0° 334° (NNW) 3,247 6.5 -11.2°
